Location: ???????
(55.4362°N, 38.1183°E)
Time: 03:49:37
(UTC+00:00)

Lacrosse 5 rocket - Pass Details

Date: 17 June 2021
Orbit: 459 x 634 km, 57.0° (Epoch: 26 July)

Event Time Altitude Azimuth Distance (km) Brightness Sun altitude
Rises 19:09:02 0° 204° (SSW) 2,522 4.4 -5.7°
Reaches altitude 10° 19:11:32 10° 188° (S) 1,628 3.3 -5.9°
Maximum altitude 19:14:20 21° 137° (SE) 1,092 2.3 -6.1°
Drops below altitude 10° 19:17:06 10° 87° (E) 1,611 3.4 -6.3°
Sets 19:19:34 0° 71° (ENE) 2,489 4.6 -6.5°
